Regional Weather Roundup
Issued by NWS Sterling, VA

Home | Current Version | Previous Version | Graphics & Text | Print | Product List | Glossary On
Versions: 1 2 3 4 5 6 7 8 9 10 11 12 13 14 15 16 17 18 19 20 21 22 23 24 25 26 27 28
000
ASUS41 KLWX 292010
RWRLWX

REGIONAL WEATHER ROUNDUP
NATIONAL WEATHER SERVICE BALTIMORE MD/WASHINGTON DC
400 PM EDT WED OCT 29 2014

Note: "FAIR" indicates few or no clouds below 12,000 feet
with no significant weather and/or obstructions to visibility.
 TC=TEMPERATURE CELSIUS

 * =Non NWS site. Station does not report precipitation (e.g. rain,
    snow, etc.), thunder, or fog.

DCZ001-MDZ009-015-VAZ040>042-051-053>054-292100-
WASHINGTON METRO

CITY           SKY/WX    TMP DP  RH WIND       PRES   REMARKS
WASHINGTON NAT CLOUDY    58  50  75 N6        29.95F
DULLES         CLOUDY    55  50  83 VRB3      29.95S
ANDREWS AFB    CLOUDY    54  50  87 NE5       29.94F
FT BELVOIR     CLOUDY    55  52  89 CALM      29.95F
QUANTICO       CLOUDY    57  50  77 N8        29.96S
COLLEGE PARK*  CLOUDY    55  52  88 CALM      29.94F
LEESBURG*      CLOUDY    55  54  94 CALM      29.95S
GAITHERSBURG*  CLOUDY    54  50  87 CALM      29.98S

$$

MDZ006>007-011-014-292100-
BALTIMORE METRO

CITY           SKY/WX    TMP DP  RH WIND       PRES   REMARKS
BWI AIRPORT    LGT RAIN  54  51  90 CALM      29.94F
MD SCIENCE CTR   N/A     56  51  84 MISG      29.95S
MARTIN STATE   RAIN      55  54  94 CALM      29.96F
ANNAPOLIS      LGT RAIN  56  49  77 N8        29.95F
FORT MEADE*    CLOUDY    54  50  87 CALM      29.96F

$$

MDZ012-015-019>023-292100-
MARYLAND EASTERN SHORE

CITY           SKY/WX    TMP DP  RH WIND       PRES   REMARKS
OCEAN CITY     CLOUDY    71  58  63 W10       29.88R
SALISBURY      CLOUDY    69  50  50 NW15G29   29.90R
BAY BRIDGE AP*   N/A     55  46  71 NW9       29.96R
CAMBRIDGE*     MOSUNNY   61  43  51 N14G22    29.93R
EASTON*        PTSUNNY   61  46  59 N14       29.96S

$$

MDZ017>025-292100-
SOUTHERN MARYLAND

CITY           SKY/WX    TMP DP  RH WIND       PRES   REMARKS
PATUXENT RIVER LGT RAIN  62  44  51 N15       29.92R
ST INIGOES     CLOUDY    65  45  48 MISG      29.91R
LEONARDTOWN*   CLOUDY    59  45  58 N3        29.94R

$$

MDZ003>005-292100-
NORTH CENTRAL MARYLAND

CITY           SKY/WX    TMP DP  RH WIND       PRES   REMARKS
FREDERICK*     CLOUDY    61  52  72 SW5       29.97R
HAGERSTOWN APT CLOUDY    57  49  74 SW7       29.93S
WESTMINSTER*   CLOUDY    54  50  87 CALM      29.93R

$$

MDZ501>502-292100-
WESTERN MARYLAND

CITY           SKY/WX    TMP DP  RH WIND       PRES   REMARKS
OAKLAND*       CLOUDY    50  37  62 W10G18    29.95S
CUMBERLAND*    CLOUDY    63  37  39 W16       29.96S

$$

VAZ025>031-292100-
SHENANDOAH VALLEY

CITY           SKY/WX    TMP DP  RH WIND       PRES   REMARKS
WINCHESTER*    CLOUDY    59  46  63 S3        29.94S
FRONT ROYAL*   CLOUDY    57  52  82 SW6       29.94S
LURAY*         FAIR      61  50  67 CALM      29.95S
NEW MARKET*    FAIR      58  48  68 S3        29.94F
STAUNTON*      CLOUDY    60  50  69 CALM      29.96S
WAYNESBORO*    FAIR      59  45  59 SW6       29.95S

$$

WVZ021-048>050-054>055-292100-
EASTERN WEST VIRGINIA PANHANDLE

CITY           SKY/WX    TMP DP  RH WIND       PRES   REMARKS
MARTINSBURG    CLOUDY    59  48  67 S3        29.94S
PETERSBURG*    CLOUDY    62  37  39 W15G22    29.95F

$$

VAZ036>039-050-292100-
CENTRAL FOOTHILLS

CITY           SKY/WX    TMP DP  RH WIND       PRES   REMARKS
CHARLOTTESVILL CLOUDY    63  55  75 NW3       29.94S
CULPEPER*      CLOUDY    57  54  88 CALM      29.95S
ORANGE*        CLOUDY    57  54  88 NE3       29.96S
GORDONSVILLE*  CLOUDY    58  55  89 NE5       29.94S
WARRENTON*     CLOUDY    56  56  98 NE3       29.95S

$$

VAZ055>057-292100-
NORTH AND CENTRAL PIEDMONT

CITY           SKY/WX    TMP DP  RH WIND       PRES   REMARKS
FREDERICKSBRG* CLOUDY    58  51  78 N3        29.95R
STAFFORD*      CLOUDY    55  49  80 N7        30.00R

$$

NCZ024-NYZ072-PAZ021-071-VAZ022-071-292100-
OTHER REGIONAL OBSERVATIONS

CITY           SKY/WX    TMP DP  RH WIND       PRES   REMARKS
NEW YORK CITY  CLOUDY    65  41  41 MISG      29.90R
PHILADELPHIA   LGT RAIN  60  41  49 NW21G26   29.95R
PITTSBURGH     PTSUNNY   56  36  47 W14       29.95S
ROANOKE        PTSUNNY   62  42  47 SW9G16    29.99F
RICHMOND       CLOUDY    73  57  57 NW10      29.89R
RALEIGH        PTSUNNY   78  57  48 SW9       29.92F

$$

ANZ530>537-292100-
MARINE OBSERVATIONS

STATION/POSITION TIME  TEMP    WIND        PRES
                       AIR SEA DIR/SP/G
                 (UTC) (F)     (DEG/KT/KT) (MB)
THOMAS PT LIGHT  2000   56 62  360/ 10/ 12 1014.8R
BALT KEY BRIDGE  2000   55     350/  4/  6 1014.1R
COVE POINT       2000   60     360/ 17/ 21 1013.2R
LEWISETTA        2000   65 63  360/  8/ 12 1012.6S
SOLOMONS ISLAND  2000      63                N/A
PINEY POINT      2000           10/ 13/ 16   N/A

$$




USA.gov is the U.S. government's official web portal to all federal, state and local government web resources and services.